Pine Ridge, SD

9:54 PM MST on January 17, 2018 (GMT -0700)
Pine Ridge

Weather History for KIEN - November, 2011

Change the Weather History Date:

Saturday, November 26, 2011

  Actual Average Record
Temperature  
Mean Temperature 28 °F 28 °F  
Max Temperature 41 °F 42 °F 71 °F (2017)
Min Temperature 15 °F 15 °F 4 °F (2015)
Degree Days  
Heating Degree Days 37 37  
Month to date heating degree days 774 785  
Since 1 July heating degree days 1448 1540  
Cooling Degree Days 0 0  
Month to date cooling degree days 0 0  
Year to date cooling degree days 818 717  
Moisture  
Dew Point 14 °F    
Average Humidity 51    
Maximum Humidity 80    
Minimum Humidity 22    
Precipitation  
Precipitation T in 0.01 in 0.31 in (2012)
Month to date precipitation 0.79 0.53  
Year to date precipitation 18.30 17.13  
Sea Level Pressure  
Sea Level Pressure 30.43 in    
Wind  
Wind Speed 11 mph (NW)    
Max Wind Speed 26 mph    
Max Gust Speed 39 mph    
Visibility 10 miles    
Events      
T = Trace of Precipitation, MM = Missing Value Source: NWS Daily Summary

Daily Weather History Graph

Daily Weather History Graph

Search for Another Location

Airport or City:

Trip Planner

Search our weather history database for the weather conditions in past years. The results will help you decide how hot, cold, wet, or windy it might be!

Date:

Astronomy

Nov. 26, 2011 Rise Set
Actual Time 6:55 AM MST 4:18 PM MST
Civil Twilight 6:24 AM MST 4:49 PM MST
Nautical Twilight 5:49 AM MST 5:25 PM MST
Astronomical Twilight 5:15 AM MST 5:59 PM MST
Moon 8:30 AM MST (11/26) 5:50 PM MST (11/26)
Length of Visible Light 10h 25m
Length of Day
9h 22m
Waxing Crescent, 3% of the Moon is Illuminated
Nov 26
Waxing Crescent
Dec 2
First Quarter
Dec 10
Full
Dec 17
Last Quarter
Dec 24
New

Hourly Weather History & Observations

Time (MST) Temp. Windchill Dew Point Humidity Pressure Visibility Wind Dir Wind Speed Gust Speed Precip Events Conditions
12:21 AM 35.6 °F 25.5 °F 24.8 °F 65% 30.08 in 9.0 mi NNW 17.3 mph 28.8 mph 0.00 in   Overcast
12:52 AM 35.1 °F 26.4 °F 23.0 °F 61% 30.12 in 10.0 mi NNW 12.7 mph 24.2 mph 0.00 in   Overcast
1:52 AM 34.0 °F 26.0 °F 21.0 °F 59% 30.16 in 10.0 mi NNW 10.4 mph 20.7 mph N/A   Mostly Cloudy
2:52 AM 35.1 °F 24.8 °F 21.0 °F 57% 30.20 in 10.0 mi NNW 17.3 mph 26.5 mph N/A   Mostly Cloudy
3:52 AM 34.0 °F 23.0 °F 21.0 °F 59% 30.24 in 10.0 mi NW 18.4 mph 26.5 mph N/A   Partly Cloudy
5:52 AM 28.9 °F 23.9 °F 21.0 °F 72% 30.39 in 10.0 mi WNW 4.6 mph - N/A   Clear
6:52 AM 30.9 °F 21.2 °F 15.1 °F 52% 30.41 in 10.0 mi NNW 12.7 mph 25.3 mph N/A   Clear
7:52 AM 32.0 °F 20.5 °F 10.0 °F 40% 30.45 in 10.0 mi NNW 18.4 mph 28.8 mph N/A   Clear
8:52 AM 34.0 °F 24.6 °F 12.0 °F 40% 30.50 in 10.0 mi NW 13.8 mph 18.4 mph N/A   Clear
9:52 AM 36.0 °F 25.3 °F 14.0 °F 41% 30.51 in 10.0 mi NNW 19.6 mph 34.5 mph N/A   Clear
10:52 AM 37.0 °F 27.7 °F 18.0 °F 46% 30.48 in 10.0 mi WNW 16.1 mph 21.9 mph N/A   Overcast
11:52 AM 39.0 °F 29.3 °F 12.0 °F 33% 30.46 in 10.0 mi NNW 19.6 mph 25.3 mph N/A   Partly Cloudy
12:52 PM 39.9 °F 30.8 °F 8.1 °F 27% 30.46 in 10.0 mi NNW 18.4 mph 29.9 mph N/A   Clear
1:52 PM 39.9 °F 30.8 °F 3.9 °F 22% 30.46 in 10.0 mi NNW 18.4 mph 27.6 mph N/A   Clear
2:52 PM 39.0 °F 30.6 °F 3.9 °F 23% 30.47 in 10.0 mi NNW 15.0 mph 27.6 mph N/A   Clear
3:52 PM 37.0 °F 30.4 °F 3.9 °F 25% 30.50 in 10.0 mi NW 9.2 mph - N/A   Clear
4:52 PM 30.9 °F 22.8 °F 14.0 °F 50% 30.54 in 10.0 mi NW 9.2 mph - N/A   Clear
5:52 PM 28.0 °F 20.8 °F 16.0 °F 61% 30.56 in 10.0 mi WNW 6.9 mph - N/A   Clear
6:52 PM 24.1 °F - 15.1 °F 69% 30.56 in 10.0 mi Calm Calm - N/A   Clear
7:52 PM 21.0 °F - 15.1 °F 78% 30.58 in 10.0 mi Calm Calm - N/A   Clear
8:52 PM 21.0 °F - 14.0 °F 74% 30.57 in 10.0 mi Calm Calm - N/A   Clear
9:52 PM 17.1 °F - 12.0 °F 81% 30.56 in 10.0 mi Calm Calm - N/A   Clear
10:52 PM 17.1 °F - 12.0 °F 81% 30.56 in 10.0 mi Calm Calm - N/A   Clear
11:52 PM 15.1 °F - 10.9 °F 84% 30.53 in 10.0 mi Calm Calm - N/A   Clear